Location: Hawks Ness
(60.2333°N, 1.1667°W)
Time: 04:10:26
(UTC+00:00)

Cosmos 2123 Rocket - Pass Details

Date: 22 October 2019
Orbit: 960 x 993 km, 82.9° (Epoch: 20 November)

Event Time Altitude Azimuth Distance (km) Brightness Sun altitude
Rises 06:05:29 0° 345° (NNW) 3,683 6.8 -7.5°
Reaches altitude 10° 06:08:01 10° 348° (NNW) 2,727 6.1 -7.2°
Maximum altitude 06:14:16 72° 73° (ENE) 1,017 4.4 -6.4°
Drops below altitude 10° 06:20:26 10° 158° (SSE) 2,696 6.8 -5.7°
Sets 06:22:56 0° 161° (SSE) 3,637 7.5 -5.4°
